Location: Unspecified
(0.0000°N, 0.0000°E)
Time: 14:00:47
(UTC+00:00)

Amateur Radio Satellites - All Passes

Search period start: 28 April 2017 13:30
Search period end: 29 April 2017 13:30
Location: Unspecified, 0.0000°N, 0.0000°E

Satellite Date Start Highest point End Downlink Frequencies (MHz)
Time Altitude Azimuth
Gurwin Techsat 1B 28 Apr 13:42:28 13:47:47 75° 257° (WSW) 13:53:05 435.225
ITUPSAT 1 28 Apr 13:43:37 13:46:29 16° 103° (ESE) 13:49:21 437.325
DX 1 28 Apr 13:44:52 13:46:12 11° 282° (WNW) 13:47:32 434.975-435.025
YUBILEINY 28 Apr 13:55:49 14:00:23 15° 87° (E) 14:04:57 435.215
AO-7 28 Apr 14:00:09 14:05:53 21° 73° (ENE) 14:11:33 .
MOZHAYETS 4 28 Apr 14:17:10 14:20:12 17° 102° (ESE) 14:23:15
SRMSAT 28 Apr 14:26:53 14:32:52 81° 338° (NNW) 14:38:52 437.500
BEESAT 28 Apr 14:37:28 14:42:14 88° 102° (ESE) 14:47:02 436.000
SO-50 28 Apr 14:51:27 14:53:03 12° 68° (ENE) 14:54:38 436.795
JUGNU 28 Apr 14:53:17 14:57:03 17° 346° (NNW) 15:00:48 437.505
ITAMSAT 1 28 Apr 14:56:56 15:02:09 78° 76° (ENE) 15:07:20 435.822/435.867
NO-84 28 Apr 14:58:36 15:00:59 14° 124° (SE) 15:03:18 435.350 FM
RS-15 28 Apr 15:13:44 15:18:00 12° 65° (ENE) 15:22:11 29.354- 29.394
ITUPSAT 1 28 Apr 15:20:02 15:24:02 27° 282° (WNW) 15:28:02 437.325
Tancredo 1 28 Apr 15:39:29 15:41:51 20° 55° (NE) 15:44:12 437.200
YUBILEINY 28 Apr 15:48:08 15:56:46 63° 267° (W) 16:05:29 435.215
AO-7 28 Apr 15:50:16 15:58:15 52° 254° (WSW) 16:06:13 .
KKS-1 28 Apr 15:52:01 15:56:03 36° 102° (ESE) 16:00:06 437.445
MOZHAYETS 4 28 Apr 15:53:30 15:57:05 22° 282° (WNW) 16:00:41
ISS 28 Apr 16:13:55 16:17:04 47° 55° (NE) 16:20:14 437.550
SRMSAT 28 Apr 16:16:59 16:22:11 30° 341° (NNW) 16:27:23 437.500
STARS 28 Apr 16:18:50 16:22:35 28° 102° (ESE) 16:26:20 437.465
SO-50 28 Apr 16:29:12 16:33:14 32° 248° (WSW) 16:37:20 436.795
NO-84 28 Apr 16:34:41 16:38:28 30° 301° (WNW) 16:42:04 435.350 FM
JUGNU 28 Apr 16:46:32 16:47:00 10° 356° (N) 16:47:28 437.505
CUBESAT XI-V 28 Apr 16:48:43 16:53:03 38° 282° (WNW) 16:57:22 437.345
DOVE 4 28 Apr 17:11:49 17:16:51 49° 78° (ENE) 17:21:56 437.250
Tancredo 1 28 Apr 17:17:00 17:17:32 10° 234° (SW) 17:18:05 437.200
RS-15 28 Apr 17:18:46 17:30:29 89° 252° (WSW) 17:41:37 29.354- 29.394
XW-2D 28 Apr 17:42:32 17:46:15 70° 79° (E) 17:49:57 145.860 - 145.880
XW-2B 28 Apr 17:49:29 17:53:15 88° 75° (ENE) 17:56:58 145.730 - 145.750
KAITUO 1B 28 Apr 17:54:30 17:58:11 79° 79° (E) 18:01:51 145.475/437.950
STARS 28 Apr 17:57:10 17:58:39 12° 282° (WNW) 18:00:09 437.465
CUTE-I 28 Apr 17:57:22 18:02:45 82° 78° (ENE) 18:08:06 437.470
XW-2C 28 Apr 18:01:34 18:05:15 55° 259° (W) 18:08:53 145.795 - 145.815
LilacSat-2 28 Apr 18:02:50 18:06:29 49° 259° (W) 18:10:07 437.200
SRMSAT 28 Apr 18:08:49 18:11:57 14° 349° (NNW) 18:15:06 437.500
STRAND 1 28 Apr 18:10:39 18:14:03 18° 103° (ESE) 18:17:27 437.568
M-CUBED/EXP-1 PRIME 28 Apr 18:21:33 18:23:04 12° 104° (ESE) 18:24:35 437.505
XW-2F 28 Apr 18:26:14 18:29:14 23° 259° (WSW) 18:32:14 145.980 - 146.000
NUDT-PHONESAT 28 Apr 18:31:44 18:34:45 24° 258° (WSW) 18:37:45 437.300
JUGNU 28 Apr 18:35:49 18:37:13 11° 6° (N) 18:38:37 437.505
HO-68 28 Apr 18:43:39 18:50:29 48° 76° (ENE) 18:57:16 435.675
DOVE 4 28 Apr 18:53:29 18:54:13 10° 258° (WSW) 18:54:57 437.250
UWE-3 28 Apr 19:01:24 19:03:08 12° 79° (E) 19:04:50 435.000/436.395/437.385
AAUSAT CUBESAT 2 28 Apr 19:10:01 19:12:51 18° 78° (ENE) 19:15:40 437.432
CUBEBUG 2 28 Apr 19:16:13 19:20:31 41° 79° (E) 19:24:39 437.445
O/OREOS (USA 219) 28 Apr 19:17:17 19:17:32 10° 75° (ENE) 19:17:47 437.305
CUTE 1.7 + AOD 2 28 Apr 19:26:09 19:30:12 49° 258° (WSW) 19:34:15 437.475
RS-15 28 Apr 19:39:42 19:42:33 11° 247° (WSW) 19:45:25 29.354- 29.394
SEEDS 28 Apr 19:42:18 19:46:20 50° 259° (WSW) 19:50:22 437.485
XW-2A 28 Apr 19:44:09 19:46:28 17° 259° (WSW) 19:48:47 145.665 - 145.685
STRAND 1 28 Apr 19:48:40 19:52:56 27° 283° (WNW) 19:57:14 437.568
ZACube-1 28 Apr 19:50:14 19:54:01 30° 79° (E) 19:57:43 437.345
M-CUBED/EXP-1 PRIME 28 Apr 19:55:10 19:57:18 15° 287° (WNW) 19:59:24 437.505
AO-73 28 Apr 19:55:50 19:59:40 31° 79° (E) 20:03:24 145.935
Oscar 11 28 Apr 20:08:38 20:12:37 37° 79° (ENE) 20:16:35 .
JUGNU 28 Apr 20:22:53 20:27:07 20° 15° (NNE) 20:31:22 437.505
HO-68 28 Apr 20:33:21 20:37:50 18° 255° (WSW) 20:42:21 435.675
UWE-3 28 Apr 20:35:34 20:39:21 27° 258° (WSW) 20:43:02 435.000/436.395/437.385
AAUSAT CUBESAT 2 28 Apr 20:45:28 20:48:02 16° 258° (WSW) 20:50:36 437.432
O/OREOS (USA 219) 28 Apr 20:52:39 20:56:40 32° 256° (WSW) 21:00:41 437.305
UNISAT 6 28 Apr 20:53:51 20:56:43 17° 103° (ESE) 20:59:37 437.425
FO-29 28 Apr 21:02:25 21:06:50 22° 106° (ESE) 21:11:39 435.910
DELFI C3 28 Apr 21:09:28 21:13:21 59° 79° (E) 21:17:15 145.870
PRISM 28 Apr 21:17:46 21:21:50 70° 103° (ESE) 21:25:53 437.425
OBJECT BX 28 Apr 21:19:58 21:23:33 59° 79° (E) 21:27:07 145.990 - 145.960
ZACube-1 28 Apr 21:29:16 21:29:59 10° 257° (WSW) 21:30:42 437.345
SRMSAT 28 Apr 21:50:02 21:52:36 13° 9° (N) 21:55:10 437.500
TIGRISAT 28 Apr 22:07:03 22:11:15 46° 281° (WNW) 22:15:36 435.000
AO-85 28 Apr 22:07:49 22:12:10 72° 248° (WSW) 22:16:53 145.980
JUGNU 28 Apr 22:10:44 22:16:28 47° 20° (NNE) 22:22:14 437.505
LO-87 28 Apr 22:17:01 22:20:17 31° 79° (E) 22:23:32 145.935 - 145.965
QB50P2 28 Apr 22:25:21 22:26:21 11° 102° (ESE) 22:27:23 145.880/145.840
UNISAT 6 28 Apr 22:29:50 22:33:08 21° 281° (WNW) 22:36:31 437.425
AIST 2D 28 Apr 22:43:13 22:46:36 42° 101° (E) 22:49:59 435.315
NANOSAT C BR1 28 Apr 22:43:23 22:46:04 17° 102° (ESE) 22:48:45 145.865
FO-29 28 Apr 22:46:33 22:51:32 31° 281° (W) 22:57:05 435.910
PCSat 28 Apr 22:50:52 22:53:36 14° 110° (ESE) 22:56:21 145.827
BEESAT 3 28 Apr 23:01:35 23:05:29 69° 68° (ENE) 23:09:21 437.485
BEESAT 2 28 Apr 23:06:20 23:09:17 20° 68° (ENE) 23:12:14 435.950
DUCHIFAT 1 28 Apr 23:10:46 23:14:37 36° 102° (ESE) 23:18:30 145.980
EO-79 28 Apr 23:11:11 23:15:14 49° 102° (ESE) 23:19:20 145.935-145.965
ESTCUBE 1 28 Apr 23:27:23 23:31:43 50° 258° (WSW) 23:36:04 437.505/2401.250
VELOX 1 28 Apr 23:31:18 23:35:17 33° 78° (ENE) 23:39:17 145.980
SRMSAT 28 Apr 23:37:37 23:42:30 26° 18° (NNE) 23:47:21 437.500
POLYITAN 1 28 Apr 23:51:11 23:55:07 39° 282° (WNW) 23:59:05 437.675
QB50P2 28 Apr 23:58:14 00:01:52 28° 282° (WNW) 00:05:30 145.880/145.840
JUGNU 28 Apr 23:59:37 00:05:34 64° 201° (SSW) 00:11:31 437.505
BUGSAT 1 29 Apr 00:03:33 00:07:25 48° 102° (ESE) 00:11:22 437.445
50 SAT 29 Apr 00:09:38 00:13:02 60° 79° (E) 00:16:28 437.505
DX 1 29 Apr 00:15:47 00:19:53 39° 78° (ENE) 00:23:57 434.975-435.025
SPROUT 29 Apr 00:16:53 00:21:06 54° 258° (WSW) 00:25:17 437.525
NANOSAT C BR1 29 Apr 00:18:35 00:21:30 19° 282° (WNW) 00:24:28 145.865
Oscar 19 29 Apr 00:23:06 00:27:07 23° 103° (ESE) 00:31:08 437.125/150
PCSat 29 Apr 00:31:48 00:36:45 37° 289° (WNW) 00:41:42 145.827
Gurwin Techsat 1B 29 Apr 00:42:42 00:46:32 20° 103° (ESE) 00:50:21 435.225
BEESAT 2 29 Apr 00:44:42 00:46:47 14° 248° (WSW) 00:48:51 435.950
VELOX 1 29 Apr 01:10:42 01:11:28 10° 258° (WSW) 01:12:13 145.980
UKube-1 29 Apr 01:14:05 01:18:13 45° 258° (WSW) 01:22:21 .
SRMSAT 29 Apr 01:25:56 01:31:52 66° 21° (NNE) 01:37:47 437.500
JUGNU 29 Apr 01:49:58 01:54:48 25° 197° (SSW) 01:59:38 437.505
ITAMSAT 1 29 Apr 01:55:45 01:57:50 12° 104° (ESE) 01:59:55 435.822/435.867
Oscar 19 29 Apr 02:02:16 02:06:09 22° 283° (WNW) 02:10:03 437.125/150
ITUPSAT 1 29 Apr 02:04:37 02:08:47 30° 78° (ENE) 02:12:54 437.325
Gurwin Techsat 1B 29 Apr 02:21:52 02:26:11 26° 283° (WNW) 02:30:32 435.225
AO-7 29 Apr 02:24:45 02:32:05 35° 107° (ESE) 02:39:26 .
YUBILEINY 29 Apr 02:26:30 02:34:01 32° 93° (E) 02:41:27 435.215
MOZHAYETS 4 29 Apr 02:33:01 02:36:54 28° 78° (ENE) 02:40:47
BEESAT 29 Apr 02:59:35 03:04:08 46° 257° (WSW) 03:08:41 436.000
SO-50 29 Apr 03:02:10 03:05:52 23° 113° (ESE) 03:09:31 436.795
Tancredo 1 29 Apr 03:10:41 03:11:33 11° 127° (SE) 03:12:27 437.200
SRMSAT 29 Apr 03:15:25 03:21:05 45° 200° (SSW) 03:26:45 437.500
CUBESAT XI-V 29 Apr 03:31:02 03:34:08 18° 78° (ENE) 03:37:14 437.345
ITAMSAT 1 29 Apr 03:32:13 03:36:59 39° 283° (WNW) 03:41:49 435.822/435.867
JUGNU 29 Apr 03:42:06 03:44:33 12° 189° (S) 03:47:00 437.505
ITUPSAT 1 29 Apr 03:44:00 03:46:19 14° 257° (WSW) 03:48:38 437.325
ISS 29 Apr 03:48:16 03:51:08 28° 126° (SE) 03:54:00 437.550
KKS-1 29 Apr 04:04:06 04:08:30 55° 78° (ENE) 04:12:52 437.445
MOZHAYETS 4 29 Apr 04:11:43 04:13:47 13° 258° (WSW) 04:15:51
AO-7 29 Apr 04:17:23 04:24:28 32° 286° (WNW) 04:31:38 .
NO-84 29 Apr 04:19:19 04:21:51 26° 237° (WSW) 04:24:32 435.350 FM
YUBILEINY 29 Apr 04:23:01 04:30:24 32° 273° (W) 04:37:48 435.215
STARS 29 Apr 04:29:15 04:33:25 41° 78° (ENE) 04:37:34 437.465
SO-50 29 Apr 04:42:51 04:46:04 18° 292° (WNW) 04:49:16 436.795
Tancredo 1 29 Apr 04:44:58 04:47:16 19° 306° (NW) 04:49:32 437.200
CUTE-I 29 Apr 04:59:10 05:02:11 15° 103° (ESE) 05:05:14 437.470
RS-15 29 Apr 04:59:46 05:11:14 78° 110° (ESE) 05:23:17 29.354- 29.394
SRMSAT 29 Apr 05:06:30 05:10:37 19° 195° (SSW) 05:14:43 437.500
CUBESAT XI-V 29 Apr 05:07:44 05:11:14 21° 258° (WSW) 05:14:44 437.345
DOVE 4 29 Apr 05:33:19 05:37:32 87° 106° (ESE) 05:41:40 437.250
XW-2D 29 Apr 05:36:02 05:39:46 54° 101° (E) 05:43:33 145.860 - 145.880
XW-2B 29 Apr 05:42:58 05:46:46 68° 101° (E) 05:50:37 145.730 - 145.750
KAITUO 1B 29 Apr 05:46:38 05:50:22 57° 102° (ESE) 05:54:06 145.475/437.950
XW-2C 29 Apr 05:54:59 05:58:47 73° 282° (WNW) 06:02:39 145.795 - 145.815
LilacSat-2 29 Apr 05:56:52 06:00:41 63° 281° (W) 06:04:32 437.200
M-CUBED/EXP-1 PRIME 29 Apr 06:18:45 06:21:36 17° 73° (ENE) 06:24:33 437.505
XW-2F 29 Apr 06:18:59 06:22:23 30° 281° (W) 06:25:47 145.980 - 146.000
NUDT-PHONESAT 29 Apr 06:22:43 06:26:07 34° 281° (W) 06:29:34 437.300
HO-68 29 Apr 06:35:21 06:41:59 41° 105° (ESE) 06:48:37 435.675
CUTE-I 29 Apr 06:37:13 06:41:56 34° 283° (WNW) 06:46:42 437.470
STRAND 1 29 Apr 06:41:50 06:46:44 45° 77° (ENE) 06:51:33 437.568
SRMSAT 29 Apr 06:59:29 07:00:41 11° 186° (S) 07:01:54 437.500
UWE-3 29 Apr 07:10:51 07:13:46 18° 103° (ESE) 07:16:46 435.000/436.395/437.385
AAUSAT CUBESAT 2 29 Apr 07:13:07 07:16:13 20° 102° (ESE) 07:19:19 437.432
RS-15 29 Apr 07:16:59 07:23:36 17° 294° (WNW) 07:30:26 29.354- 29.394
JUGNU 29 Apr 07:21:45 07:24:50 14° 169° (SSE) 07:27:55 437.505
O/OREOS (USA 219) 29 Apr 07:25:24 07:28:30 18° 105° (ESE) 07:31:37 437.305
XW-2A 29 Apr 07:25:53 07:28:59 34° 281° (W) 07:32:07 145.665 - 145.685
CUBEBUG 2 29 Apr 07:27:59 07:32:14 60° 102° (ESE) 07:36:40 437.445
CUTE 1.7 + AOD 2 29 Apr 07:32:23 07:36:24 40° 281° (WNW) 07:40:26 437.475
SEEDS 29 Apr 07:47:26 07:51:26 42° 281° (WNW) 07:55:27 437.485
M-CUBED/EXP-1 PRIME 29 Apr 07:52:19 07:55:43 23° 255° (WSW) 07:59:18 437.505
ZACube-1 29 Apr 07:59:12 08:03:21 42° 102° (ESE) 08:07:36 437.345
AO-73 29 Apr 08:04:29 08:08:39 44° 102° (ESE) 08:12:55 145.935
Oscar 11 29 Apr 08:16:58 08:21:12 51° 102° (ESE) 08:25:26 .
HO-68 29 Apr 08:24:08 08:29:22 22° 285° (WNW) 08:34:38 435.675
STRAND 1 29 Apr 08:24:55 08:25:35 10° 257° (WSW) 08:26:14 437.568
FO-29 29 Apr 08:38:32 08:41:17 13° 80° (E) 08:43:55 435.910
AO-85 29 Apr 08:44:08 08:45:31 11° 115° (ESE) 08:46:53 145.980
TIGRISAT 29 Apr 08:46:44 08:48:13 11° 79° (ENE) 08:49:40 435.000
UWE-3 29 Apr 08:46:46 08:49:56 20° 281° (W) 08:53:12 435.000/436.395/437.385
AAUSAT CUBESAT 2 29 Apr 08:49:06 08:51:24 15° 282° (WNW) 08:53:44 437.432
SRMSAT 29 Apr 08:50:08 08:51:04 10° 175° (S) 08:52:00 437.500
O/OREOS (USA 219) 29 Apr 09:04:22 09:07:38 19° 285° (WNW) 09:10:54 437.305
UNISAT 6 29 Apr 09:06:30 09:10:15 26° 79° (ENE) 09:13:53 437.425
DELFI C3 29 Apr 09:07:42 09:11:34 55° 102° (ESE) 09:15:26 145.870
JUGNU 29 Apr 09:09:18 09:14:25 30° 161° (SSE) 09:19:31 437.505
OBJECT BX 29 Apr 09:09:51 09:13:16 38° 101° (ESE) 09:16:43 145.990 - 145.960
PRISM 29 Apr 09:20:14 09:24:21 77° 77° (ENE) 09:28:28 437.425
LO-87 29 Apr 10:05:33 10:08:09 19° 101° (ESE) 10:10:45 145.935 - 145.965
ESTCUBE 1 29 Apr 10:07:49 10:09:11 11° 102° (ESE) 10:10:33 437.505/2401.250
FO-29 29 Apr 10:19:10 10:26:17 59° 256° (WSW) 10:32:34 435.910
TIGRISAT 29 Apr 10:20:41 10:24:39 30° 257° (WSW) 10:28:32 435.000
AO-85 29 Apr 10:21:25 10:25:51 37° 291° (WNW) 10:29:59 145.980
AIST 2D 29 Apr 10:29:51 10:32:43 24° 79° (E) 10:35:33 435.315
QB50P2 29 Apr 10:30:34 10:32:40 13° 78° (ENE) 10:34:45 145.880/145.840
SRMSAT 29 Apr 10:37:13 10:41:11 18° 165° (SSE) 10:45:09 437.500
UNISAT 6 29 Apr 10:44:21 10:46:38 14° 257° (WSW) 10:48:55 437.425
NANOSAT C BR1 29 Apr 10:48:41 10:51:48 20° 78° (ENE) 10:54:53 145.865
BEESAT 3 29 Apr 10:53:13 10:57:01 68° 111° (ESE) 11:00:52 437.485
JUGNU 29 Apr 10:57:40 11:03:32 83° 157° (SSE) 11:09:23 437.505
BEESAT 2 29 Apr 10:59:17 11:02:10 20° 112° (ESE) 11:05:04 435.950
DUCHIFAT 1 29 Apr 11:16:01 11:20:03 44° 78° (ENE) 11:24:02 145.980
EO-79 29 Apr 11:17:09 11:21:22 62° 78° (ENE) 11:25:32 145.935-145.965
PCSat 29 Apr 11:24:40 11:29:46 44° 71° (ENE) 11:34:52 145.827
ESTCUBE 1 29 Apr 11:41:42 11:45:42 32° 282° (WNW) 11:49:44 437.505/2401.250
VELOX 1 29 Apr 11:42:30 11:46:43 47° 102° (ESE) 11:50:56 145.980
50 SAT 29 Apr 11:54:13 11:57:15 30° 101° (E) 12:00:18 437.505
POLYITAN 1 29 Apr 11:57:38 12:01:26 32° 258° (WSW) 12:05:12 437.675
QB50P2 29 Apr 12:04:47 12:08:11 23° 258° (WSW) 12:11:33 145.880/145.840
BUGSAT 1 29 Apr 12:06:27 12:10:36 55° 78° (ENE) 12:14:40 437.445
SPROUT 29 Apr 12:24:02 12:28:02 42° 282° (WNW) 12:32:05 437.525
NANOSAT C BR1 29 Apr 12:24:41 12:27:14 16° 258° (WSW) 12:29:45 145.865
SRMSAT 29 Apr 12:25:08 12:30:44 42° 160° (SSE) 12:36:21 437.500
DX 1 29 Apr 12:25:10 12:29:23 54° 102° (ESE) 12:33:36 434.975-435.025
BEESAT 2 29 Apr 12:37:51 12:39:39 13° 292° (WNW) 12:41:29 435.950
JUGNU 29 Apr 12:47:16 12:52:36 36° 340° (NNW) 12:57:55 437.505
Oscar 19 29 Apr 12:55:43 13:00:46 59° 78° (ENE) 13:05:49 437.125/150
PCSat 29 Apr 13:11:01 13:12:54 12° 250° (WSW) 13:14:48 145.827
Gurwin Techsat 1B 29 Apr 13:19:49 13:25:04 58° 77° (ENE) 13:30:15 435.225
UKube-1 29 Apr 13:22:38 13:26:31 34° 282° (WNW) 13:30:25 .
